Goldsboro, NC

10:17 PM EDT on April 26, 2017 (GMT -0400)
Seymour Johnson Air Force Base

Weather History for KGSB - December, 2011

Change the Weather History Date:

Thursday, December 22, 2011

  Actual Average Record
Temperature  
Mean Temperature 68 °F -  
Max Temperature 75 °F 51 °F 81 °F (2013)
Min Temperature 61 °F 32 °F 21 °F (1996)
Cooling Degree Days 3    
Growing Degree Days 18 (Base 50)    
Moisture  
Dew Point 59 °F    
Average Humidity 74    
Maximum Humidity 95    
Minimum Humidity 58    
Precipitation  
Precipitation 0.00 in - - ()
Sea Level Pressure  
Sea Level Pressure 30.04 in    
Wind  
Wind Speed 9 mph (SSW)    
Max Wind Speed 15 mph    
Max Gust Speed 24 mph    
Visibility 10 miles    
Events      
Averages and records for this station are not official NWS values.
T = Trace of Precipitation, MM = Missing Value Source: NWS Daily Summary

Daily Weather History Graph

Daily Weather History Graph

Search for Another Location

Airport or City:

Trip Planner

Search our weather history database for the weather conditions in past years. The results will help you decide how hot, cold, wet, or windy it might be!

Date:

Astronomy

Dec. 22, 2011 Rise Set
Actual Time 7:17 AM EST 5:03 PM EST
Civil Twilight 6:48 AM EST 5:31 PM EST
Nautical Twilight 6:17 AM EST 6:03 PM EST
Astronomical Twilight 5:46 AM EST 6:34 PM EST
Moon 4:59 AM EST (12/22) 3:11 PM EST (12/22)
Length of Visible Light 10h 42m
Length of Day
9h 46m
Waning Crescent, 6% of the Moon is Illuminated
Dec 22
Waning Crescent
Dec 24
New
Jan 1
First Quarter
Jan 9
Full
Jan 16
Last Quarter

Hourly Weather History & Observations

Time (EST) Temp. Dew Point Humidity Pressure Visibility Wind Dir Wind Speed Gust Speed Precip Events Conditions
12:55 AM 63.5 °F 59.9 °F 88% 30.02 in 10.0 mi SSW 9.2 mph - N/A   Overcast
1:55 AM 64.0 °F 59.9 °F 86% 30.03 in 10.0 mi SSW 9.2 mph - N/A   Overcast
2:55 AM 64.8 °F 59.4 °F 83% 30.03 in 10.0 mi SSW 10.4 mph - N/A   Overcast
3:55 AM 64.6 °F 59.4 °F 83% 30.04 in 10.0 mi SSW 9.2 mph - N/A   Overcast
4:55 AM 63.5 °F 59.4 °F 86% 30.05 in 10.0 mi SSW 6.9 mph - N/A   Scattered Clouds
5:55 AM 62.4 °F 59.5 °F 90% 30.07 in 10.0 mi SSW 8.1 mph - N/A   Clear
6:55 AM 62.8 °F 59.7 °F 90% 30.09 in 10.0 mi SW 9.2 mph - N/A   Partly Cloudy
7:55 AM 61.0 °F 59.5 °F 95% 30.11 in 10.0 mi WSW 4.6 mph - N/A   Scattered Clouds
8:55 AM 65.1 °F 60.6 °F 85% 30.13 in 10.0 mi SW 9.2 mph - N/A   Clear
9:55 AM 68.4 °F 60.1 °F 75% 30.14 in 10.0 mi WSW 10.4 mph - N/A   Clear
10:55 AM 71.1 °F 59.5 °F 67% 30.12 in 10.0 mi WSW 6.9 mph - N/A   Scattered Clouds
11:55 AM 71.2 °F 59.7 °F 67% 30.09 in 10.0 mi SSW 8.1 mph - N/A   Overcast
12:55 PM 73.0 °F 60.3 °F 64% 30.06 in 10.0 mi SSW 9.2 mph - N/A   Mostly Cloudy
1:02 PM 73.4 °F 60.8 °F 65% 30.05 in 10.0 mi SW 6.9 mph - N/A   Mostly Cloudy
1:55 PM 74.7 °F 59.2 °F 58% 30.04 in 10.0 mi SW 11.5 mph - N/A   Overcast
2:55 PM 75.0 °F 59.9 °F 59% 30.03 in 10.0 mi South 9.2 mph - N/A   Mostly Cloudy
3:55 PM 74.5 °F 58.6 °F 58% 30.01 in 10.0 mi South 6.9 mph - N/A   Partly Cloudy
4:55 PM 72.5 °F 58.6 °F 62% 30.00 in 10.0 mi SSE 3.5 mph - N/A   Partly Cloudy
5:55 PM 70.9 °F 57.7 °F 63% 29.99 in 10.0 mi South 10.4 mph - N/A   Partly Cloudy
6:55 PM 70.0 °F 59.5 °F 69% 29.99 in 10.0 mi South 12.7 mph 24.2 mph N/A   Overcast
7:55 PM 69.3 °F 59.7 °F 72% 29.99 in 10.0 mi South 11.5 mph 17.3 mph N/A   Overcast
8:55 PM 68.5 °F 59.7 °F 73% 29.99 in 10.0 mi South 9.2 mph 19.6 mph N/A   Clear
9:55 PM 67.6 °F 58.8 °F 73% 29.98 in 10.0 mi South 10.4 mph 18.4 mph N/A   Clear
10:55 PM 67.6 °F 58.1 °F 71% 29.99 in 10.0 mi SSW 11.5 mph 19.6 mph N/A   Clear
11:55 PM 67.6 °F 57.7 °F 71% 29.96 in 10.0 mi South 15.0 mph 24.2 mph N/A   Overcast